Location: Newark
(48.6461°N, 4.3644°W)
Time: 12:17:24
(UTC+00:00)

A-11 Canister half - Pass Details

Date: 02 February 2020
Orbit: 1517 x 1683 km, 47.2° (Epoch: 19 February)

Event Time Altitude Azimuth Distance (km) Brightness Sun altitude
Rises 21:17:27 0° 220° (SW) 4,804 11.8 -39.5°
Reaches altitude 10° 21:20:44 10° 215° (SW) 3,797 11.1 -40.0°
Enters shadow 21:23:45 22° 206° (SSW) 2,937 10.4 -40.5°
